DELTA 1 DEB, 10644

Orbit data source: Space-Track

DELTA 1 DEB, 10644 is space debris in SSO originally from a launch on Thu, 29 Jul 1976 UTC launched from the Air Force Western Test Range (AFWTR). Debris objects in space refer to the collection of defunct objects orbiting the Earth. Examples of debris include non-operational satellites, rocket bodies, and fragments generated from explosions, collisions, or faulty payload assembly.

Loading next visibility...
Identifier
10644, 1976-077E
Orbit
SSO
Country
Flag of USUS
Related business
Manufacturer
Unknown
Mission
Spacecraft
Bus & Motor
Unknown
Mass
Unknown
Launch date (UTC)
1976-07-29 (50 years ago)
Launch vehicle
Unknown
Launch site
Air Force Western Test Range (AFWTR)
Object type
Payload
Rocket body
Debris
Shape & HBR
Unknown shape, 0.1 m
Radar Cross Section
Medium (>0.1 m² and <1 m²)

Expand to show TLE details & history
Last TLE update: 1 day ago

TLE from 1 day ago
0 DELTA 1 DEB
1 10644U 76077E   26255.39980272 -.00000075  00000-0 -17157-3 0  9990
2 10644 101.3863 219.6304 0105796 204.0435 309.0075 12.61841887305738
Epoch: 2026-09-12T09:35Z
TLE epoch observation values (Epoch: 2026-09-12T09:35:42.955Z)
Latitude
27.34252°
Longitude
-89.76056°
Altitude
1,367.056 km
Speed
7.201 km/s
True Right ascension
03h 02m 18s
True Declination
27° 12' 49"
Sunlit
Object was in daylight at epoch
Visualization orbit readout
Latitude
Unknown
Longitude
Unknown
Altitude
Unknown
Speed
Unknown
Apparent Right ascension
Unknown
Apparent Declination
Unknown
Sunlit
N/A
Visualization observer readout
Local Sidereal Time
03:54:38
Azimuth
Unknown
Elevation
Unknown
Doppler factor
Unknown
Orbital elements
Apogee altitude
1,495.287 km
Perigee altitude
1,330.435 km
Semi-major axis
7,790.998 km
Eccentricity
0.01058
Inclination
101.3863°
RAAN
219.6304°
Arg. of periapsis
204.0435°
True anomaly
308.05758°
Mean anomaly
309.0075°
Eccentric anomaly
308.53333°
Mean motion
3.15612 °/min
Orbital period
114.06 mins
BSTAR
-0.00017157
Loading maneuver chart data...
Computing Atmospheric mass density...
Loading historical data...
Loading historical data...
Loading historical data...
Loading historical data...
Loading historical data...
Loading historical data...
Loading historical data...

Documentation

Showing up to 5 results
|